#timestamp,LO_Frequency,Hit,StdDev 
1584550815.1,286047002.4,N
1584550816.0,286047002.4,N
1584550835.8,286047001.7,N
1584550855.7,286047004.3,N
1584550875.5,286047002.4,N
1584550895.3,286047001.4,N
1584550915.2,286047004.0,N
1584550935.0,286047004.4,N
1584550935.9,286047004.4,N
1584550955.7,286047001.4,N
1584550975.6,286047002.3,N
1584550995.4,286046998.2,N
1584551015.3,286046998.5,N
1584551035.1,286047001.9,N
1584551036.0,286047001.9,N
1584551055.8,286047001.6,N
1584551075.7,286047002.6,N
1584551095.5,286047001.4,N
1584551115.4,286047004.4,N
1584551135.2,286047001.7,N
1584551155.0,286047002.2,N
1584551155.9,286047002.2,N
1584551175.8,286047001.0,N
1584551195.6,286047002.4,N
1584551215.5,286047000.3,N
1584551235.3,286047000.0,N
1584551255.1,286046999.1,N
1584551275.9,286046998.7,N
1584551295.7,286046998.3,N
1584551315.5,286046998.8,N
1584551335.4,286046999.7,N
1584551355.2,286047002.4,N
1584551375.1,286047002.0,N
1584551376.0,286047002.0,N
1584551395.8,286047000.9,N
1584551415.6,286047001.3,N
1584551435.5,286047003.7,N
1584551455.3,286047004.2,N
1584551475.2,286047003.1,N
1584551495.9,286047004.0,N
1584551515.7,286047002.5,N
1584551535.6,286047001.0,N
1584551555.4,286047000.3,N
1584551575.3,286046999.0,N
1584551595.1,286046998.2,N
1584551596.0,286046998.2,N
1584551615.8,286047000.0,N
1584551635.7,286047001.1,N
1584551655.5,286046998.6,N
1584551675.3,286047000.9,N
1584551695.2,286047002.8,N
1584551715.0,286047002.2,N
1584551715.9,286047002.2,N
1584551735.8,286047002.0,N
1584551755.6,286046998.7,N
1584551775.4,286046999.7,N
1584551795.3,286047002.8,N
1584551815.1,286047003.6,N
1584551835.9,286047003.8,N
1584551855.7,286047001.3,N
1584551875.5,286047004.1,N
1584551895.4,286047003.4,N
1584551915.2,286047003.0,N
1584551935.0,286047005.6,Y
1584551936.0,286047005.6,P
1584551955.8,286047002.5,N
1584551975.6,286047000.9,N
1584551995.5,286047002.6,N
1584552015.3,286047001.3,N
1584552035.1,286047001.5,N
1584552055.9,286047002.0,N
1584552075.7,286047004.1,N
1584552095.6,286047002.1,N
1584552115.4,286047001.9,N
1584552135.2,286047002.7,N
1584552155.1,286047000.0,N
1584552156.0,286047000.0,N
1584552175.8,286047001.0,N
1584552195.6,286047001.0,N
1584552215.5,286046998.1,N
1584552235.3,286046996.5,N
1584552255.2,286047000.6,N
1584552275.9,286047000.2,N
1584552295.7,286047001.5,N
1584552315.6,286047002.0,N
1584552335.4,286047001.6,N
1584552355.3,286047000.1,N
1584552375.1,286047001.0,N
1584552376.0,286047001.0,N
1584552395.8,286047001.1,N
1584552415.7,286046996.9,N
1584552435.5,286046997.1,N
1584552455.3,286046997.9,N
1584552475.2,286046997.6,N
1584552495.0,286046997.7,N
1584552495.9,286046997.7,N
1584552515.8,286046995.7,N
1584552535.6,286046995.5,N
1584552555.4,286046995.8,N
1584552575.3,286046993.7,N
1584552595.1,286046997.4,N
1584552615.9,286046995.5,N
1584552635.7,286046993.3,N
1584552655.5,286046995.7,N
1584552675.4,286046993.4,N
1584552695.2,286046994.5,N
1584552715.0,286046994.1,N
1584552715.9,286046994.1,N
1584552735.8,286046994.3,N
1584552755.6,286046991.9,N
1584552775.5,286046992.9,N
1584552795.3,286046992.8,N
1584552815.1,286046990.1,Y
1584552835.9,286046995.7,P
1584552855.7,286046995.7,P
1584552875.5,286046995.3,P
1584552895.4,286046997.8,Y
1584552915.2,286046998.4,P
1584552935.1,286046998.5,N
1584552936.0,286046998.5,N
1584552955.8,286046999.1,N
1584552975.6,286046999.2,N
1584552995.5,286046998.9,N
1584553015.3,286046996.5,Y
1584553035.2,286046998.9,P
1584553055.9,286046996.5,P
1584553075.7,286046997.1,N
1584553095.6,286046995.4,Y
1584553115.4,286046998.8,P
1584553135.3,286046999.0,N
1584553155.1,286046999.4,N
1584553156.0,286046999.4,N
1584553175.8,286046998.3,N
1584553195.7,286046999.1,N
1584553215.5,286046996.6,Y
1584553235.3,286046998.4,P
1584553255.2,286046999.0,P
1584553275.0,286046998.4,P
1584553275.9,286046998.4,Y
1584553295.8,286047001.0,P
1584553315.6,286047001.0,N
1584553335.4,286046998.1,N
1584553355.3,286046998.5,N
1584553375.1,286046999.4,N
1584553395.9,286046998.8,N
1584553415.7,286046998.8,N
1584553435.5,286047000.9,N
1584553455.4,286047002.2,N
1584553475.2,286047002.5,N
1584553495.0,286047000.2,N
1584553496.0,286047000.2,N
1584553515.8,286047000.2,N
1584553535.6,286047000.4,N
1584553555.5,286047002.4,N
1584553575.3,286047000.9,N
1584553595.1,286047000.5,N
1584553615.9,286046998.9,N
1584553635.7,286046999.7,N
1584553655.6,286047000.4,N
1584553675.4,286047000.3,N
1584553695.2,286047002.8,N
1584553715.1,286047000.0,N
1584553716.0,286047000.0,N
1584553735.8,286046999.8,N
1584553755.7,286047002.7,N
1584553775.5,286047001.7,N
1584553795.3,286047001.9,N
1584553815.2,286047003.8,N
1584553835.0,286046999.8,N
1584553835.9,286046999.8,N
1584553855.7,286047002.0,N
1584553875.6,286047000.0,N
1584553895.4,286047000.5,N
1584553915.3,286047000.1,N
1584553935.1,286047001.6,N
1584553936.0,286047001.6,N
1584553955.8,286047003.6,Y
1584553975.7,286047001.9,P
1584553995.5,286047004.4,P
1584554015.4,286047003.4,N
1584554035.2,286047003.6,N
1584554055.0,286047002.9,N
1584554055.9,286047002.9,N
1584554075.8,286047005.9,Y
1584554095.6,286047000.4,P
1584554115.4,286047002.2,N
1584554135.3,286047004.3,P
1584554155.1,286046999.8,N
1584554175.9,286047000.9,N
1584554195.7,286047001.0,N
1584554215.5,286047002.2,N
1584554235.4,286047001.4,N
1584554255.2,286047004.3,Y
1584554275.1,286047004.3,P
1584554276.0,286047004.3,P
1584554295.8,286047003.4,N
1584554315.6,286047002.9,N
1584554335.5,286047005.8,Y
1584554355.3,286047000.2,P
1584554375.2,286046999.6,N
1584554395.9,286046996.7,N
